Terminal Aerodrome Forecast
Issued by NWS

Home | Current Version | Previous Version | Text Only | Print | Product List | Glossary On
Versions: 1 2 3 4 5 6 7 8 9 10 11 12 13 14 15 16 17 18 19 20
000
FTUS43 KAPX 281120
TAFAPN
TAF
KAPN 281120Z 2812/2912 10007KT P6SM FEW008
     FM281500 11008KT P6SM SCT050
     FM290000 11006KT P6SM BKN150
     FM290600 15003KT P6SM SKC WS020/18025KT=

USA.gov is the U.S. government's official web portal to all federal, state and local government web resources and services.